Wind_Speed
24 24 24 23 23 17 13 12 12 11 10 9 8 8 7 7 6 6 6 6 5 5 5 4 4 4 5 5 4 4 4 5 6 8 9 9 10 10 10 9 9 9 9 10 10 9 10 9 9
25 23 25 26 19 14 13 12 12 11 11 10 10 9 9 8 7 7 6 6 7 6 5 5 5 5 5 5 4 4 3 4 5 7 8 9 9 9 9 9 10 10 9 10 10 10 10 10 9
26 25 28 22 14 14 14 13 13 13 12 11 11 10 9 9 8 8 7 7 8 8 7 7 7 6 5 5 4 4 4 4 5 5 7 8 8 8 8 9 9 9 10 10 10 10 9 9 9
25 28 26 15 12 14 14 14 14 14 13 12 11 11 10 10 10 9 8 8 9 8 8 8 7 6 6 5 4 4 4 4 4 5 6 7 7 8 7 8 8 9 9 9 10 10 9 9 8
26 27 19 12 12 14 15 15 15 14 14 13 12 12 11 11 10 10 9 8 9 9 9 8 7 7 6 5 5 5 4 4 4 5 6 6 7 7 7 8 8 8 9 10 10 10 9 8 7
27 22 13 12 13 13 14 15 14 14 14 14 13 13 12 11 11 10 10 9 9 9 9 8 8 7 6 5 5 5 5 5 4 4 7 7 7 7 7 7 7 8 9 10 9 9 8 7 7
23 15 10 10 11 12 13 14 14 14 14 14 14 14 13 13 12 11 10 10 9 9 9 9 8 7 6 6 5 5 4 4 4 4 6 6 7 6 6 7 7 8 9 9 9 8 7 7 6
16 12 8 8 10 11 12 13 14 14 15 15 14 14 13 12 12 12 11 11 10 10 10 9 9 8 7 6 6 4 3 3 3 3 4 5 5 6 6 6 7 8 9 9 8 8 7 7 6
14 10 7 7 9 10 11 12 13 14 15 15 15 14 13 13 12 12 12 11 11 10 10 10 9 8 8 7 6 5 4 3 3 3 4 5 5 5 6 6 6 7 8 8 7 6 7 6 6
10 7 7 8 7 8 9 10 12 14 15 15 14 14 14 13 12 12 12 12 12 11 11 11 9 9 9 8 7 6 5 4 3 3 4 4 5 5 6 5 6 6 7 6 6 6 6 6 5
8 6 6 7 7 8 9 10 12 13 14 14 14 14 14 13 13 12 12 13 12 12 12 11 10 10 9 9 8 7 6 5 4 3 3 4 5 5 5 5 5 6 6 6 6 5 6 6 5
5 6 7 6 6 8 9 10 10 10 12 13 14 14 13 13 13 12 12 12 12 12 11 11 10 10 10 9 8 7 7 5 5 4 3 3 4 4 4 4 5 6 6 6 5 5 6 6 6
3 4 4 5 6 7 8 9 10 11 12 12 13 13 13 13 13 13 13 12 12 12 12 12 11 11 10 9 9 8 8 6 5 4 3 3 2 2 3 4 5 5 5 5 6 6 6 6 6
1 2 3 4 4 6 7 7 9 11 11 11 12 12 13 13 13 13 13 12 12 12 12 12 11 11 10 10 9 8 8 7 6 4 3 2 1 2 3 4 4 5 5 5 5 6 6 7 7
1 1 2 3 4 5 5 6 8 9 10 11 11 12 13 13 13 12 12 12 13 12 12 12 11 11 11 11 10 9 8 8 7 5 4 3 2 1 1 2 3 3 4 4 5 6 6 6 7
3 4 4 2 2 4 5 6 8 9 9 11 11 11 11 11 12 12 11 11 12 12 12 11 12 12 11 10 10 9 8 7 7 6 5 3 2 2 1 1 2 2 3 3 4 5 6 7 7
4 7 8 6 4 4 5 7 8 10 11 10 10 11 10 10 11 11 11 11 11 11 11 11 11 12 11 10 10 10 9 7 6 6 5 4 3 2 2 2 2 3 3 4 4 5 6 7 8
9 10 10 8 7 5 5 8 8 8 11 11 10 10 10 10 9 10 10 10 10 11 11 11 11 11 11 10 10 10 9 8 7 7 5 4 4 3 3 3 2 4 5 5 5 5 5 6 7
12 11 10 10 9 7 6 9 10 8 8 9 10 10 9 9 9 9 9 9 9 9 10 10 10 10 11 11 10 10 9 8 8 7 6 5 5 4 4 4 3 4 4 5 5 6 6 6 7
14 12 11 12 12 8 8 11 12 10 9 9 10 10 10 9 9 10 10 9 9 9 10 10 10 10 11 11 11 10 9 9 9 8 7 6 5 4 4 4 3 4 5 5 5 6 7 7 7
15 13 13 13 12 11 10 11 13 12 10 10 9 10 10 11 10 9 9 8 9 9 10 10 11 10 10 11 11 11 10 10 9 9 8 7 6 6 5 5 6 6 6 6 6 7 7 7 8
16 15 16 16 14 15 14 14 14 15 14 11 10 10 11 11 12 11 9 8 9 9 10 10 10 10 10 10 10 11 10 10 10 9 8 8 7 7 7 7 7 7 7 6 7 7 7 7 7
18 17 18 18 17 18 18 16 14 16 15 13 11 11 11 12 12 11 11 10 9 9 9 10 10 10 10 10 11 11 11 11 11 10 9 9 9 8 9 8 8 8 7 7 8 8 8 8 8
20 19 19 18 18 20 18 18 18 18 16 15 13 11 12 12 13 12 12 11 11 10 10 11 11 11 11 11 11 12 12 11 11 11 10 10 10 10 10 10 10 9 9 8 8 8 8 9 8
22 20 20 20 21 21 17 19 20 20 17 17 16 13 12 13 14 13 13 13 13 12 12 12 12 12 12 12 12 12 12 11 11 11 11 11 10 11 11 11 11 11 11 10 10 10 9 9 9
23 22 23 21 20 19 19 21 20 20 19 18 18 17 17 16 15 14 13 14 14 14 13 13 13 13 14 13 13 13 13 12 12 12 13 13 12 12 12 12 12 12 13 12 12 11 11 10 10
24 24 23 23 23 22 22 22 19 20 19 18 18 19 20 18 17 17 16 16 16 16 15 15 15 15 15 15 14 14 13 13 13 14 14 15 14 14 13 13 13 14 13 13 13 13 12 12 12
25 23 23 24 25 25 24 22 19 19 19 20 20 20 22 21 19 19 18 18 17 17 17 17 17 16 16 16 16 15 14 14 14 15 16 16 16 16 15 14 15 15 14 14 14 14 14 14 14
24 26 25 25 26 26 25 24 20 23 23 22 22 23 22 21 21 21 20 21 19 19 19 19 19 18 18 18 17 16 16 15 16 17 17 17 17 17 17 16 16 16 16 16 16 16 16 16 16
24 26 26 27 28 26 26 24 22 23 22 22 22 24 23 22 22 22 22 22 21 21 21 21 21 20 20 20 19 19 17 17 18 19 19 19 19 18 18 19 19 18 18 18 18 18 18 18 18
Wind_Direction
68 65 63 59 50 46 47 47 49 50 52 54 58 60 64 62 64 62 51 63 65 67 68 80 99 118 124 120 119 115 124 139 142 145 148 149 146 143 142 142 141 138 135 135 132 130 124 117 114
66 66 63 55 46 42 47 48 49 50 52 55 61 60 61 62 62 58 55 59 59 65 74 83 90 95 105 109 110 109 116 133 139 141 145 150 152 151 147 143 142 138 136 136 134 131 126 120 117
67 64 61 52 41 42 46 48 48 51 53 56 58 58 62 61 58 57 56 57 60 66 72 77 82 90 100 106 104 105 114 122 130 140 148 151 150 154 149 144 142 139 138 136 134 133 127 124 121
68 62 59 50 43 46 48 49 51 53 52 54 57 57 58 61 60 60 61 61 62 61 66 74 80 88 97 97 96 104 108 112 122 138 145 148 146 148 147 144 140 139 138 135 137 135 132 129 128
68 61 55 46 46 47 47 47 48 51 53 53 54 56 56 57 59 60 64 66 63 62 69 73 81 91 98 90 95 101 100 106 110 125 139 148 146 144 143 143 142 144 144 140 142 142 138 133 129
64 59 51 44 46 46 46 47 48 49 51 54 54 54 54 55 56 55 59 61 60 64 66 68 80 88 90 82 83 86 88 96 104 118 135 141 143 142 141 142 143 146 151 148 146 149 145 137 132
66 64 53 46 43 44 47 47 49 49 50 51 50 50 51 53 55 56 55 56 57 60 65 69 73 75 72 70 73 81 85 91 93 113 128 130 133 136 138 141 143 147 152 153 151 152 151 146 141
77 66 54 48 47 44 46 47 49 48 49 50 48 50 51 53 54 56 55 54 55 56 63 65 68 69 66 64 66 74 78 80 92 112 136 137 132 137 140 142 148 152 155 157 157 159 160 156 149
68 65 60 54 47 48 48 46 47 46 46 47 47 49 52 52 54 56 55 54 54 54 56 54 59 61 59 57 57 61 64 72 79 96 135 146 143 144 147 148 154 158 164 163 164 167 168 165 157
56 49 48 52 48 51 47 44 44 43 42 42 44 46 48 50 52 54 54 53 52 51 52 53 56 57 54 53 54 53 53 63 70 86 122 139 147 147 152 158 158 158 164 169 167 173 176 177 172
53 34 44 51 44 50 40 38 39 36 36 38 40 43 44 47 49 49 50 49 49 48 50 51 52 54 53 51 52 54 50 50 60 77 109 137 149 155 158 167 170 165 168 172 180 186 189 189 185
49 31 32 40 36 45 44 39 39 34 33 35 35 38 42 44 46 47 49 50 49 48 49 48 49 51 51 49 50 51 50 52 58 66 84 124 144 154 165 172 179 175 182 191 198 198 199 201 198
45 34 24 18 24 28 40 36 32 28 31 32 32 33 37 40 41 44 46 48 48 47 48 48 49 51 52 50 46 45 45 47 48 56 72 96 136 160 179 188 188 187 196 205 209 209 211 212 214
146 59 15 10 18 16 20 21 24 26 25 25 31 34 32 37 37 39 41 44 44 45 45 44 44 44 47 46 43 43 40 40 45 49 54 75 101 166 188 200 196 205 215 219 219 217 219 223 225
171 251 302 358 3 359 7 359 9 18 17 18 24 31 29 31 34 35 37 39 39 43 43 39 38 37 38 37 37 37 38 43 42 45 47 49 42 75 182 207 208 216 228 232 229 226 230 234 237
213 257 279 307 331 327 345 349 352 359 10 13 17 22 24 28 30 31 33 35 36 37 37 36 34 34 33 32 30 29 30 37 36 38 38 33 28 32 10 294 235 230 243 245 245 249 248 245 243
222 256 259 273 287 306 325 323 336 347 352 4 13 17 18 21 23 24 28 31 32 34 33 32 32 31 29 28 26 25 26 28 27 24 23 22 15 359 354 320 269 257 264 268 257 255 250 248 248
234 243 258 265 274 260 288 296 315 332 340 348 358 4 8 10 12 16 21 23 26 29 32 31 27 26 24 22 21 22 22 22 20 18 14 6 359 349 344 336 299 269 271 275 266 259 261 260 258
231 244 258 271 262 253 255 281 294 311 322 329 340 345 352 356 360 3 7 10 15 20 24 24 20 19 18 17 16 17 16 14 13 13 8 359 352 347 346 337 316 292 281 288 287 278 272 270 263
231 241 249 259 260 257 255 275 288 293 299 310 323 329 334 338 343 350 354 1 6 7 8 9 11 11 12 13 12 10 11 7 6 7 4 1 353 345 345 351 336 321 309 305 306 291 280 274 272
238 242 249 253 255 264 259 270 281 284 286 293 306 314 319 326 330 333 340 348 352 355 356 357 2 6 4 4 6 5 4 3 3 3 2 357 355 348 340 338 335 328 321 313 302 294 288 283 277
240 243 248 251 252 258 260 261 274 280 283 280 290 302 306 314 320 323 328 333 337 342 345 347 352 357 357 357 360 358 357 354 355 354 355 354 349 342 337 332 331 326 320 313 306 302 294 291 289
239 239 244 249 251 255 259 259 260 272 275 278 275 290 298 299 305 309 314 319 322 326 330 334 338 344 347 349 349 350 350 349 351 349 347 346 345 340 335 331 326 325 324 316 302 299 297 294 293
236 238 246 252 253 254 259 267 268 269 269 276 271 280 289 293 296 299 303 308 309 310 315 321 326 331 334 337 339 339 340 339 341 343 341 339 338 338 337 334 329 325 322 321 316 308 300 298 293
236 237 245 249 252 253 256 262 267 268 268 279 281 278 280 284 289 291 295 299 299 299 303 309 313 316 319 321 325 327 330 330 331 332 335 334 331 330 328 327 325 323 320 318 315 311 306 301 297
234 235 242 246 250 254 253 253 259 264 264 266 268 273 275 277 280 283 286 291 292 291 293 298 301 305 308 310 313 317 320 321 322 324 325 327 326 323 318 317 316 317 316 313 311 310 307 300 295
233 234 237 247 252 256 255 255 251 253 256 259 261 268 273 274 274 277 281 283 286 287 289 292 294 297 299 300 302 307 313 315 315 316 318 320 319 317 314 309 311 312 311 310 307 306 305 298 294
233 235 236 240 250 254 259 264 260 262 259 260 260 259 265 269 269 273 276 278 280 283 285 288 292 296 297 297 298 299 301 303 306 309 313 315 315 313 313 308 307 308 308 308 307 302 300 298 293
232 233 234 237 242 250 256 261 260 260 255 255 260 262 260 262 264 268 273 275 275 279 281 284 287 290 293 293 294 293 294 296 299 304 307 309 309 309 307 306 305 302 301 301 302 301 297 294 292
235 238 237 240 243 245 254 260 255 259 262 260 262 262 259 261 261 264 270 272 272 274 277 279 282 284 287 288 291 290 290 292 294 297 300 302 303 304 304 304 303 299 297 298 298 296 295 293 290
Height
5883 5882 5881 5880 5879 5880 5879 5878 5877 5875 5874 5872 5871 5870 5869 5868 5869 5870 5867 5865 5865 5865 5864 5864 5865 5865 5865 5866 5866 5866 5866 5867 5867 5868 5868 5869 5870 5871 5872 5872 5873 5874 5876 5877 5878 5879 5880 5881 5882
5887 5886 5883 5882 5885 5884 5882 5881 5879 5877 5876 5874 5873 5872 5871 5870 5870 5869 5868 5867 5867 5866 5865 5865 5866 5866 5867 5867 5867 5867 5868 5868 5868 5869 5869 5870 5871 5871 5872 5873 5874 5875 5877 5878 5879 5881 5882 5883 5884
5890 5887 5884 5887 5890 5887 5885 5883 5881 5880 5878 5876 5875 5874 5873 5872 5871 5870 5869 5869 5868 5868 5868 5867 5867 5868 5868 5868 5869 5869 5869 5869 5869 5869 5870 5871 5871 5872 5872 5874 5875 5876 5878 5879 5881 5882 5883 5884 5885
5892 5888 5890 5895 5893 5890 5888 5886 5884 5882 5881 5879 5878 5877 5875 5874 5873 5872 5871 5871 5870 5870 5869 5869 5869 5869 5870 5870 5870 5870 5870 5870 5870 5870 5871 5871 5872 5872 5873 5874 5876 5877 5879 5880 5882 5883 5885 5886 5887
5892 5891 5898 5899 5896 5893 5891 5889 5887 5885 5883 5882 5880 5879 5877 5876 5875 5874 5874 5873 5873 5872 5871 5871 5870 5870 5871 5871 5871 5871 5871 5871 5871 5871 5871 5872 5873 5874 5874 5875 5876 5878 5879 5881 5883 5884 5886 5887 5888
5893 5899 5904 5902 5899 5897 5894 5892 5890 5888 5886 5884 5883 5881 5880 5879 5877 5876 5876 5875 5874 5873 5873 5872 5872 5872 5872 5872 5872 5872 5872 5872 5872 5872 5872 5873 5874 5875 5875 5876 5877 5879 5880 5882 5883 5885 5886 5888 5889
5900 5905 5907 5905 5902 5900 5898 5895 5893 5891 5889 5887 5885 5884 5882 5881 5880 5879 5878 5877 5876 5876 5875 5874 5873 5874 5874 5874 5873 5873 5873 5873 5873 5873 5873 5874 5875 5876 5876 5877 5878 5880 5881 5883 5884 5886 5887 5889 5890
5907 5909 5909 5907 5905 5903 5900 5898 5896 5894 5892 5890 5888 5886 5885 5884 5882 5881 5880 5879 5879 5878 5877 5876 5876 5875 5875 5875 5875 5874 5874 5874 5874 5874 5874 5875 5876 5877 5878 5879 5880 5881 5882 5884 5885 5887 5888 5890 5891
5911 5912 5910 5909 5907 5905 5903 5900 5899 5896 5895 5893 5891 5889 5888 5886 5885 5884 5883 5882 5881 5880 5879 5879 5878 5877 5877 5876 5876 5875 5875 5875 5875 5875 5875 5876 5877 5878 5879 5880 5881 5882 5883 5885 5886 5888 5889 5890 5891
5914 5913 5912 5911 5909 5907 5905 5903 5901 5899 5897 5895 5894 5892 5890 5889 5887 5886 5885 5884 5883 5882 5881 5881 5880 5879 5878 5878 5877 5876 5875 5875 5876 5876 5877 5877 5878 5879 5880 5881 5882 5883 5885 5886 5887 5889 5890 5891 5892
5916 5915 5913 5912 5910 5909 5907 5905 5903 5901 5900 5898 5896 5894 5893 5891 5890 5888 5887 5886 5885 5884 5883 5883 5882 5881 5880 5879 5878 5878 5877 5877 5877 5877 5878 5878 5879 5880 5881 5882 5883 5884 5885 5887 5888 5889 5890 5891 5893
5917 5916 5915 5913 5912 5911 5909 5907 5906 5904 5903 5901 5899 5897 5895 5893 5892 5891 5890 5888 5887 5886 5886 5885 5884 5883 5882 5881 5880 5879 5879 5878 5878 5879 5879 5880 5880 5881 5882 5883 5884 5885 5886 5887 5888 5889 5890 5891 5893
5918 5918 5917 5916 5914 5912 5911 5910 5908 5906 5904 5902 5901 5899 5897 5896 5894 5893 5892 5891 5890 5889 5888 5887 5886 5885 5884 5883 5882 5881 5880 5880 5880 5880 5880 5881 5881 5882 5883 5884 5885 5886 5887 5887 5888 5889 5890 5892 5892
5918 5918 5918 5917 5916 5914 5913 5911 5910 5908 5907 5905 5902 5901 5900 5898 5897 5895 5894 5893 5892 5891 5890 5889 5888 5887 5886 5885 5884 5883 5882 5882 5882 5881 5881 5881 5882 5883 5883 5884 5885 5886 5887 5887 5889 5889 5890 5891 5892
5918 5918 5918 5917 5917 5916 5914 5913 5911 5909 5909 5906 5904 5902 5901 5900 5899 5897 5896 5895 5894 5893 5892 5891 5890 5889 5888 5887 5886 5885 5884 5884 5883 5882 5882 5881 5882 5883 5884 5884 5885 5886 5886 5887 5888 5889 5890 5891 5892
5917 5918 5918 5917 5917 5916 5916 5915 5912 5910 5909 5908 5906 5904 5903 5902 5900 5899 5898 5897 5896 5895 5894 5893 5892 5891 5890 5889 5888 5886 5885 5885 5885 5884 5883 5883 5884 5884 5884 5885 5885 5886 5886 5887 5887 5888 5889 5890 5890
5917 5917 5917 5917 5917 5916 5916 5915 5913 5911 5910 5909 5907 5906 5904 5903 5902 5901 5900 5899 5898 5897 5896 5895 5894 5893 5891 5890 5889 5888 5887 5886 5886 5885 5885 5884 5884 5884 5884 5885 5885 5885 5886 5886 5887 5887 5888 5888 5889
5916 5916 5915 5916 5917 5916 5916 5916 5913 5913 5911 5910 5908 5907 5905 5904 5903 5902 5901 5900 5899 5898 5897 5896 5895 5895 5893 5892 5891 5890 5889 5888 5887 5886 5885 5885 5885 5885 5884 5885 5885 5885 5885 5886 5886 5886 5887 5887 5888
5913 5914 5914 5915 5915 5914 5915 5915 5913 5912 5911 5910 5909 5908 5907 5905 5904 5903 5902 5901 5900 5899 5899 5898 5897 5896 5895 5894 5892 5891 5890 5889 5888 5887 5886 5885 5885 5885 5885 5885 5885 5885 5885 5885 5885 5885 5886 5886 5887
5911 5912 5915 5916 5914 5914 5914 5914 5912 5912 5911 5910 5909 5908 5907 5906 5905 5903 5903 5902 5901 5900 5899 5898 5897 5897 5896 5895 5894 5892 5891 5890 5889 5888 5887 5886 5886 5885 5885 5885 5885 5885 5885 5885 5885 5885 5885 5885 5885
5909 5911 5913 5913 5912 5912 5913 5913 5912 5910 5910 5909 5908 5907 5906 5905 5905 5904 5903 5902 5901 5901 5900 5899 5898 5897 5896 5895 5894 5893 5892 5891 5890 5889 5888 5887 5886 5886 5885 5885 5885 5884 5884 5884 5884 5884 5883 5883 5883
5906 5909 5910 5910 5910 5911 5912 5911 5910 5909 5908 5907 5907 5906 5905 5905 5904 5903 5903 5902 5902 5901 5900 5899 5898 5897 5896 5895 5894 5893 5892 5891 5890 5889 5888 5887 5886 5886 5885 5885 5884 5884 5883 5883 5883 5882 5882 5882 5882
5903 5906 5907 5906 5906 5908 5907 5907 5907 5906 5905 5904 5904 5905 5904 5904 5903 5902 5902 5901 5901 5900 5900 5899 5898 5897 5896 5895 5894 5893 5892 5891 5890 5889 5888 5887 5886 5885 5885 5884 5883 5883 5882 5882 5881 5881 5880 5880 5880
5899 5901 5902 5902 5902 5903 5905 5905 5904 5903 5902 5901 5900 5902 5902 5902 5901 5901 5900 5900 5900 5899 5899 5898 5897 5896 5895 5894 5893 5892 5891 5890 5890 5889 5887 5886 5886 5885 5884 5883 5882 5882 5881 5880 5880 5879 5879 5878 5878
5894 5897 5898 5899 5899 5899 5902 5902 5902 5901 5900 5899 5899 5898 5899 5899 5899 5899 5898 5898 5898 5897 5897 5897 5896 5895 5894 5893 5892 5891 5890 5889 5889 5888 5887 5886 5885 5884 5883 5882 5881 5880 5880 5879 5878 5877 5877 5876 5876
5889 5892 5894 5895 5895 5897 5898 5898 5899 5898 5896 5896 5896 5896 5896 5896 5896 5896 5896 5895 5895 5895 5894 5894 5894 5893 5892 5891 5891 5889 5888 5888 5887 5886 5885 5884 5883 5882 5881 5880 5879 5878 5877 5877 5876 5875 5875 5874 5874
5883 5885 5889 5891 5891 5892 5892 5892 5892 5893 5893 5892 5891 5893 5893 5893 5893 5892 5892 5892 5892 5891 5891 5891 5891 5890 5890 5889 5889 5888 5887 5886 5885 5884 5883 5882 5881 5880 5879 5878 5877 5876 5875 5874 5873 5872 5872 5871 5871
5877 5880 5884 5885 5886 5886 5887 5887 5887 5888 5887 5887 5886 5887 5887 5887 5888 5888 5888 5888 5888 5888 5888 5887 5887 5886 5886 5886 5885 5885 5884 5883 5883 5882 5881 5880 5878 5877 5876 5875 5874 5873 5872 5871 5870 5869 5868 5868 5867
5871 5874 5876 5878 5880 5881 5882 5884 5882 5883 5881 5881 5881 5882 5882 5882 5882 5882 5883 5883 5883 5883 5884 5884 5883 5883 5883 5882 5882 5881 5880 5880 5879 5879 5878 5877 5875 5874 5873 5872 5870 5869 5868 5867 5867 5866 5865 5864 5863
5865 5867 5870 5872 5873 5875 5875 5879 5875 5876 5875 5875 5875 5875 5875 5876 5877 5877 5878 5878 5878 5878 5879 5879 5879 5879 5878 5878 5877 5876 5876 5876 5875 5875 5874 5873 5872 5870 5869 5868 5867 5865 5864 5863 5862 5861 5860 5859 5858